Location: Middle Street
(51.7167°N, 0.0333°E)
Time: 02:32:50
(UTC+00:00)

Landsat 5 - Pass Details

Date: 20 January 2021
Orbit: 527 x 654 km, 98.2° (Epoch: 24 February)

Event Time Altitude Azimuth Distance (km) Brightness Sun altitude
Rises 17:27:53 0° 13° (NNE) 2,779 6.6 -9.1°
Reaches altitude 10° 17:30:04 10° 13° (NNE) 1,858 5.7 -9.5°
Maximum altitude 17:34:04 81° 286° (WNW) 560 3.4 -10.0°
Drops below altitude 10° 17:37:55 10° 200° (SSW) 1,790 6.5 -10.6°
Sets 17:40:00 0° 199° (SSW) 2,667 7.4 -10.9°
